Time,TemperatureF,DewpointF,PressureIn,WindDirection,WindDirectionDegrees,WindSpeedMPH,WindSpeedGustMPH,Humidity,HourlyPrecipIn,Conditions,Clouds,dailyrainin,SolarRadiationWatts/m^2,SoftwareType,DateUTC
2013-01-13 00:00:00,56.4,55.0,30.13,South,184,0.0,6.0,95,0.00,,---,0.01,0.00,VWS V14.01,2013-01-13 05:00:00,
2013-01-13 00:03:00,56.4,55.0,30.12,East,92,0.0,0.0,95,0.00,,---,0.00,0.00,VWS V14.01,2013-01-13 05:03:00,
2013-01-13 00:08:00,56.3,54.9,30.12,East,92,0.0,1.0,95,0.00,,---,0.00,0.00,VWS V14.01,2013-01-13 05:08:00,
2013-01-13 00:13:00,56.2,54.8,30.12,NNE,14,0.0,3.0,95,0.00,,---,0.00,0.00,VWS V14.01,2013-01-13 05:13:00,
2013-01-13 00:18:00,56.3,54.9,30.13,SSW,207,0.0,11.0,95,0.00,,---,0.00,0.00,VWS V14.01,2013-01-13 05:18:00,
2013-01-13 00:23:00,56.4,55.0,30.13,South,187,1.0,11.0,95,0.00,,---,0.00,0.00,VWS V14.01,2013-01-13 05:23:00,
2013-01-13 00:28:00,56.4,55.0,30.12,South,186,0.0,11.0,95,0.00,,---,0.00,0.00,VWS V14.01,2013-01-13 05:28:00,
2013-01-13 00:30:00,56.3,54.9,30.12,SSE,165,1.0,11.0,95,0.00,,---,0.00,0.00,VWS V14.01,2013-01-13 05:30:00,
2013-01-13 00:33:00,56.3,54.9,30.12,SSE,165,0.0,1.0,95,0.00,,---,0.00,0.00,VWS V14.01,2013-01-13 05:33:00,
2013-01-13 00:38:00,56.3,54.9,30.12,South,183,3.0,4.0,95,0.00,,---,0.00,0.00,VWS V14.01,2013-01-13 05:38:00,
2013-01-13 00:43:00,56.3,54.9,30.11,SSE,148,0.0,6.0,95,0.00,,---,0.00,0.00,VWS V14.01,2013-01-13 05:43:00,
2013-01-13 00:48:00,56.3,54.9,30.12,SSE,167,6.0,6.0,95,0.00,,---,0.00,0.00,VWS V14.01,2013-01-13 05:48:00,
2013-01-13 00:53:00,56.5,55.1,30.12,South,171,0.0,6.0,95,0.00,,---,0.00,0.00,VWS V14.01,2013-01-13 05:53:00,
2013-01-13 00:58:00,56.5,55.1,30.12,South,171,0.0,6.0,95,0.00,,---,0.00,0.00,VWS V14.01,2013-01-13 05:58:00,
2013-01-13 01:00:00,56.6,55.2,30.11,SSE,163,0.0,6.0,95,0.00,,---,0.00,0.00,VWS V14.01,2013-01-13 06:00:00,
2013-01-13 01:03:00,56.6,55.2,30.11,NNE,24,1.0,1.0,95,0.00,,---,0.00,0.00,VWS V14.01,2013-01-13 06:03:00,
2013-01-13 01:08:00,56.6,55.2,30.11,South,178,0.0,4.0,95,0.00,,---,0.00,0.00,VWS V14.01,2013-01-13 06:08:00,
2013-01-13 01:13:00,56.7,55.0,30.11,SSW,199,2.0,4.0,94,0.00,,---,0.00,0.00,VWS V14.01,2013-01-13 06:13:00,
2013-01-13 01:18:00,56.6,54.9,30.11,SSE,166,3.0,9.0,94,0.00,,---,0.00,0.00,VWS V14.01,2013-01-13 06:18:00,
2013-01-13 01:23:00,56.7,55.0,30.12,South,180,3.0,9.0,94,0.00,,---,0.00,0.00,VWS V14.01,2013-01-13 06:23:00,
2013-01-13 01:28:00,56.7,55.0,30.11,SSW,201,0.0,9.0,94,0.00,,---,0.00,0.00,VWS V14.01,2013-01-13 06:28:00,
2013-01-13 01:30:00,56.7,55.0,30.11,SSE,163,1.0,9.0,94,0.00,,---,0.00,0.00,VWS V14.01,2013-01-13 06:30:00,
2013-01-13 01:33:00,56.8,55.1,30.11,ESE,107,0.0,6.0,94,0.00,,---,0.00,0.00,VWS V14.01,2013-01-13 06:33:00,
2013-01-13 01:39:00,56.8,55.1,30.11,South,180,3.0,6.0,94,0.00,,---,0.00,0.00,VWS V14.01,2013-01-13 06:39:00,
2013-01-13 01:44:00,56.8,55.1,30.12,South,187,0.0,9.0,94,0.00,,---,0.00,0.00,VWS V14.01,2013-01-13 06:44:00,
2013-01-13 01:49:00,56.8,55.1,30.11,South,169,5.0,9.0,94,0.00,,---,0.00,0.00,VWS V14.01,2013-01-13 06:49:00,
2013-01-13 01:54:00,56.8,55.1,30.11,South,169,0.0,9.0,94,0.00,,---,0.00,0.00,VWS V14.01,2013-01-13 06:54:00,
2013-01-13 01:59:00,56.8,55.1,30.11,South,181,4.0,9.0,94,0.00,,---,0.00,0.00,VWS V14.01,2013-01-13 06:59:00,
2013-01-13 02:00:00,56.8,55.1,30.11,South,173,1.0,9.0,94,0.00,,---,0.00,0.00,VWS V14.01,2013-01-13 07:00:00,
2013-01-13 02:04:00,56.8,55.1,30.11,SSE,161,0.0,3.0,94,0.00,,---,0.00,0.00,VWS V14.01,2013-01-13 07:04:00,
2013-01-13 02:09:00,56.8,55.1,30.11,South,178,6.0,7.0,94,0.00,,---,0.00,0.00,VWS V14.01,2013-01-13 07:09:00,
2013-01-13 02:14:00,56.8,55.1,30.11,ESE,115,3.0,9.0,94,0.00,,---,0.00,0.00,VWS V14.01,2013-01-13 07:14:00,
2013-01-13 02:19:00,56.8,55.1,30.11,SSW,198,4.0,10.0,94,0.00,,---,0.00,0.00,VWS V14.01,2013-01-13 07:19:00,
2013-01-13 02:24:00,56.8,55.1,30.12,SSW,200,0.0,10.0,94,0.00,,---,0.00,0.00,VWS V14.01,2013-01-13 07:24:00,
2013-01-13 02:29:00,56.9,55.2,30.11,ESE,109,0.0,10.0,94,0.00,,---,0.00,0.00,VWS V14.01,2013-01-13 07:29:00,
2013-01-13 02:30:00,56.9,55.2,30.11,SSE,153,4.0,10.0,94,0.00,,---,0.00,0.00,VWS V14.01,2013-01-13 07:30:00,
2013-01-13 02:34:00,56.9,55.5,30.11,SSE,157,5.0,5.0,95,0.00,,---,0.00,0.00,VWS V14.01,2013-01-13 07:34:00,
2013-01-13 02:39:00,56.9,55.5,30.12,SSE,159,2.0,7.0,95,0.00,,---,0.00,0.00,VWS V14.01,2013-01-13 07:39:00,
2013-01-13 02:44:00,56.9,55.5,30.12,South,175,0.0,7.0,95,0.00,,---,0.00,0.00,VWS V14.01,2013-01-13 07:44:00,
2013-01-13 02:49:00,56.9,55.5,30.12,SE,130,2.0,7.0,95,0.00,,---,0.00,0.00,VWS V14.01,2013-01-13 07:49:00,
2013-01-13 02:54:00,56.9,55.5,30.11,SSW,192,0.0,7.0,95,0.00,,---,0.00,0.00,VWS V14.01,2013-01-13 07:54:00,
2013-01-13 02:59:00,56.9,55.5,30.11,SE,136,0.0,7.0,95,0.00,,---,0.00,0.00,VWS V14.01,2013-01-13 07:59:00,
2013-01-13 03:00:00,56.9,55.5,30.11,SE,131,0.0,7.0,95,0.00,,---,0.00,0.00,VWS V14.01,2013-01-13 08:00:00,
2013-01-13 03:05:00,56.9,55.5,30.11,SW,236,1.0,1.0,95,0.00,,---,0.00,0.00,VWS V14.01,2013-01-13 08:05:00,
2013-01-13 03:10:00,56.9,55.5,30.11,ESE,121,0.0,4.0,95,0.00,,---,0.00,0.00,VWS V14.01,2013-01-13 08:10:00,
2013-01-13 03:15:00,56.8,55.4,30.11,ESE,121,0.0,4.0,95,0.00,,---,0.00,0.00,VWS V14.01,2013-01-13 08:15:00,
2013-01-13 03:20:00,56.8,55.1,30.10,East,86,1.0,4.0,94,0.00,,---,0.00,0.00,VWS V14.01,2013-01-13 08:20:00,
2013-01-13 03:25:00,56.7,55.0,30.10,SE,140,0.0,4.0,94,0.00,,---,0.00,0.00,VWS V14.01,2013-01-13 08:25:00,
2013-01-13 03:30:00,56.7,55.0,30.10,SE,137,0.0,4.0,94,0.00,,---,0.00,0.00,VWS V14.01,2013-01-13 08:30:00,
2013-01-13 03:35:00,56.6,55.2,30.10,SSE,163,0.0,2.0,95,0.00,,---,0.00,0.00,VWS V14.01,2013-01-13 08:35:00,
2013-01-13 03:40:00,56.6,55.2,30.09,SE,139,1.0,6.0,95,0.00,,---,0.00,0.00,VWS V14.01,2013-01-13 08:40:00,
2013-01-13 03:45:00,56.5,55.1,30.10,SSE,167,0.0,6.0,95,0.00,,---,0.00,0.00,VWS V14.01,2013-01-13 08:45:00,
2013-01-13 03:50:00,56.5,55.1,30.09,NE,53,0.0,6.0,95,0.00,,---,0.00,0.00,VWS V14.01,2013-01-13 08:50:00,
2013-01-13 03:55:00,56.5,55.1,30.09,ESE,119,0.0,6.0,95,0.00,,---,0.00,0.00,VWS V14.01,2013-01-13 08:55:00,
2013-01-13 04:00:00,56.4,55.0,30.09,NE,53,0.0,6.0,95,0.00,,---,0.00,0.00,VWS V14.01,2013-01-13 09:00:00,
2013-01-13 04:05:00,56.4,55.0,30.09,SE,142,0.0,0.0,95,0.00,,---,0.00,0.00,VWS V14.01,2013-01-13 09:05:00,
2013-01-13 04:10:00,56.4,55.0,30.09,SE,142,0.0,2.0,95,0.00,,---,0.00,0.00,VWS V14.01,2013-01-13 09:10:00,
2013-01-13 04:15:00,56.4,55.0,30.09,SSE,155,0.0,2.0,95,0.00,,---,0.00,0.00,VWS V14.01,2013-01-13 09:15:00,
2013-01-13 04:20:00,56.4,55.0,30.08,SE,130,0.0,3.0,95,0.00,,---,0.00,0.00,VWS V14.01,2013-01-13 09:20:00,
2013-01-13 04:25:00,56.3,54.9,30.08,SE,133,0.0,3.0,95,0.00,,---,0.00,0.00,VWS V14.01,2013-01-13 09:25:00,
2013-01-13 04:30:00,56.3,54.9,30.08,South,181,0.0,3.0,95,0.00,,---,0.00,0.00,VWS V14.01,2013-01-13 09:30:00,
2013-01-13 04:35:00,56.3,54.9,30.08,SSE,165,0.0,1.0,95,0.00,,---,0.00,0.00,VWS V14.01,2013-01-13 09:35:00,
2013-01-13 04:40:00,56.3,54.9,30.08,South,171,2.0,7.0,95,0.00,,---,0.00,0.00,VWS V14.01,2013-01-13 09:40:00,
2013-01-13 04:45:00,56.4,55.0,30.07,SSW,204,2.0,12.0,95,0.00,,---,0.00,0.00,VWS V14.01,2013-01-13 09:45:00,
2013-01-13 04:50:00,56.5,55.1,30.07,South,176,1.0,12.0,95,0.00,,---,0.00,0.00,VWS V14.01,2013-01-13 09:50:00,
2013-01-13 04:55:00,56.6,55.2,30.08,South,179,1.0,12.0,95,0.00,,---,0.00,0.00,VWS V14.01,2013-01-13 09:55:00,
2013-01-13 05:00:00,56.7,55.0,30.07,SE,126,1.0,12.0,94,0.00,,---,0.00,0.00,VWS V14.01,2013-01-13 10:00:00,
2013-01-13 05:05:00,56.8,55.1,30.07,South,171,0.0,10.0,94,0.00,,---,0.00,0.00,VWS V14.01,2013-01-13 10:05:00,
2013-01-13 05:10:00,57.0,55.3,30.07,South,175,9.0,13.0,94,0.00,,---,0.00,0.00,VWS V14.01,2013-01-13 10:10:00,
2013-01-13 05:15:00,57.2,55.2,30.07,South,172,4.0,13.0,93,0.00,,---,0.00,0.00,VWS V14.01,2013-01-13 10:15:00,
2013-01-13 05:20:00,57.4,55.4,30.07,SW,224,5.0,13.0,93,0.00,,---,0.00,0.00,VWS V14.01,2013-01-13 10:20:00,
2013-01-13 05:25:00,57.5,55.5,30.07,SW,215,0.0,13.0,93,0.00,,---,0.00,0.00,VWS V14.01,2013-01-13 10:25:00,
2013-01-13 05:30:00,57.7,55.4,30.07,SSE,165,6.0,13.0,92,0.00,,---,0.00,0.00,VWS V14.01,2013-01-13 10:30:00,
2013-01-13 05:35:00,57.7,55.4,30.07,SSW,198,6.0,10.0,92,0.00,,---,0.00,0.00,VWS V14.01,2013-01-13 10:35:00,
2013-01-13 05:40:00,57.8,55.2,30.07,SSE,164,0.0,11.0,91,0.00,,---,0.00,0.00,VWS V14.01,2013-01-13 10:40:00,
2013-01-13 05:45:00,57.8,55.2,30.07,SSE,165,3.0,14.0,91,0.00,,---,0.00,0.00,VWS V14.01,2013-01-13 10:45:00,
2013-01-13 05:50:00,57.9,55.3,30.07,South,179,6.0,14.0,91,0.00,,---,0.00,0.00,VWS V14.01,2013-01-13 10:50:00,
2013-01-13 05:55:00,57.9,55.3,30.07,SSE,168,1.0,14.0,91,0.00,,---,0.00,0.00,VWS V14.01,2013-01-13 10:55:00,
2013-01-13 06:00:00,57.9,55.3,30.08,SSE,155,0.0,14.0,91,0.00,,---,0.00,0.00,VWS V14.01,2013-01-13 11:00:00,
2013-01-13 06:05:00,58.0,55.1,30.08,South,179,6.0,10.0,90,0.00,,---,0.00,0.00,VWS V14.01,2013-01-13 11:05:00,
2013-01-13 06:10:00,58.0,55.1,30.08,SSW,205,0.0,10.0,90,0.00,,---,0.00,0.00,VWS V14.01,2013-01-13 11:10:00,
2013-01-13 06:15:00,58.0,55.1,30.08,SSE,164,6.0,11.0,90,0.00,,---,0.00,0.00,VWS V14.01,2013-01-13 11:15:00,
2013-01-13 06:20:00,58.0,55.1,30.08,SW,226,4.0,13.0,90,0.00,,---,0.00,0.00,VWS V14.01,2013-01-13 11:20:00,
2013-01-13 06:25:00,58.0,55.1,30.07,SSW,192,3.0,13.0,90,0.00,,---,0.00,0.00,VWS V14.01,2013-01-13 11:25:00,
2013-01-13 06:30:00,58.0,54.8,30.07,South,174,3.0,13.0,89,0.00,,---,0.00,0.00,VWS V14.01,2013-01-13 11:30:00,
2013-01-13 06:35:00,57.9,54.7,30.08,South,169,5.0,10.0,89,0.00,,---,0.00,0.00,VWS V14.01,2013-01-13 11:35:00,
2013-01-13 06:40:00,57.9,54.7,30.08,SSW,211,2.0,10.0,89,0.00,,---,0.00,0.00,VWS V14.01,2013-01-13 11:40:00,
2013-01-13 06:45:00,57.9,54.7,30.08,East,80,3.0,11.0,89,0.00,,---,0.00,0.00,VWS V14.01,2013-01-13 11:45:00,
2013-01-13 06:50:00,58.0,54.8,30.08,South,179,2.0,13.0,89,0.00,,---,0.00,0.00,VWS V14.01,2013-01-13 11:50:00,
2013-01-13 06:55:00,58.0,54.8,30.08,SSW,209,0.0,13.0,89,0.00,,---,0.00,0.00,VWS V14.01,2013-01-13 11:55:00,
2013-01-13 07:00:00,58.0,54.8,30.08,SSW,202,3.0,13.0,89,0.00,,---,0.00,0.00,VWS V14.01,2013-01-13 12:00:00,
2013-01-13 07:05:00,58.1,54.9,30.08,South,186,0.0,11.0,89,0.00,,---,0.00,0.00,VWS V14.01,2013-01-13 12:05:00,
2013-01-13 07:10:00,58.1,54.9,30.08,SSE,157,2.0,11.0,89,0.00,,---,0.00,0.00,VWS V14.01,2013-01-13 12:10:00,
2013-01-13 07:15:00,58.0,54.5,30.08,South,175,4.0,11.0,88,0.00,,---,0.00,0.00,VWS V14.01,2013-01-13 12:15:00,
2013-01-13 07:20:00,58.0,54.5,30.08,South,175,7.0,12.0,88,0.00,,---,0.00,0.00,VWS V14.01,2013-01-13 12:20:00,
2013-01-13 07:25:00,57.9,54.4,30.08,South,175,2.0,12.0,88,0.00,,---,0.00,0.00,VWS V14.01,2013-01-13 12:25:00,
2013-01-13 07:30:00,57.9,54.4,30.09,SSW,207,0.0,12.0,88,0.00,,---,0.00,0.00,VWS V14.01,2013-01-13 12:30:00,
2013-01-13 07:35:00,57.8,54.3,30.09,SSW,200,0.0,7.0,88,0.00,,---,0.00,0.00,VWS V14.01,2013-01-13 12:35:00,
2013-01-13 07:40:00,57.7,54.2,30.09,South,171,0.0,11.0,88,0.00,,---,0.00,0.00,VWS V14.01,2013-01-13 12:40:00,
2013-01-13 07:45:00,57.7,54.2,30.10,SSE,157,7.0,11.0,88,0.00,,---,0.00,7.00,VWS V14.01,2013-01-13 12:45:00,
2013-01-13 07:50:00,57.7,54.2,30.10,South,178,9.0,11.0,88,0.00,,---,0.00,9.00,VWS V14.01,2013-01-13 12:50:00,
2013-01-13 07:55:00,57.8,54.3,30.10,South,188,0.0,12.0,88,0.00,,---,0.00,12.00,VWS V14.01,2013-01-13 12:55:00,
2013-01-13 08:00:00,57.8,54.3,30.10,South,172,2.0,13.0,88,0.00,,---,0.00,16.00,VWS V14.01,2013-01-13 13:00:00,
2013-01-13 08:05:00,57.8,54.3,30.09,SSW,201,6.0,11.0,88,0.00,,---,0.00,14.00,VWS V14.01,2013-01-13 13:05:00,
2013-01-13 08:10:00,57.9,54.4,30.10,South,172,7.0,13.0,88,0.00,,---,0.00,21.00,VWS V14.01,2013-01-13 13:10:00,
2013-01-13 08:15:00,58.0,54.5,30.10,SSW,212,5.0,13.0,88,0.00,,---,0.00,26.00,VWS V14.01,2013-01-13 13:15:00,
2013-01-13 08:20:00,58.1,54.6,30.11,South,170,7.0,13.0,88,0.00,,---,0.00,42.00,VWS V14.01,2013-01-13 13:20:00,
2013-01-13 08:25:00,58.2,54.7,30.12,SSW,205,2.0,13.0,88,0.00,,---,0.00,56.00,VWS V14.01,2013-01-13 13:25:00,
2013-01-13 08:30:00,58.4,54.9,30.12,SW,217,0.0,13.0,88,0.00,,---,0.00,67.00,VWS V14.01,2013-01-13 13:30:00,
2013-01-13 08:35:00,58.5,55.0,30.12,SSE,156,1.0,11.0,88,0.00,,---,0.00,70.00,VWS V14.01,2013-01-13 13:35:00,
2013-01-13 08:40:00,58.5,55.0,30.12,SW,215,5.0,11.0,88,0.00,,---,0.00,70.00,VWS V14.01,2013-01-13 13:40:00,
2013-01-13 08:45:00,58.6,54.8,30.12,South,172,5.0,11.0,87,0.00,,---,0.00,77.00,VWS V14.01,2013-01-13 13:45:00,
2013-01-13 08:50:00,58.7,54.8,30.12,SSW,207,5.0,11.0,87,0.00,,---,0.00,72.00,VWS V14.01,2013-01-13 13:50:00,
2013-01-13 08:55:00,58.8,55.0,30.13,SW,217,0.0,11.0,87,0.00,,---,0.00,77.00,VWS V14.01,2013-01-13 13:55:00,
2013-01-13 09:00:00,58.8,54.9,30.13,SSW,203,0.0,11.0,87,0.00,,---,0.00,97.00,VWS V14.01,2013-01-13 14:00:00,
2013-01-13 09:01:00,58.8,55.0,30.13,South,191,0.0,11.0,87,0.00,,---,0.00,97.00,VWS V14.01,2013-01-13 14:01:00,
2013-01-13 09:06:00,58.9,55.0,30.13,WSW,251,1.0,11.0,87,0.00,,---,0.00,95.00,VWS V14.01,2013-01-13 14:06:00,
2013-01-13 09:10:00,59.0,55.1,30.12,SSW,197,5.0,11.0,87,0.00,,---,0.00,109.00,VWS V14.01,2013-01-13 14:10:00,
2013-01-13 09:16:00,59.1,54.9,30.12,WNW,300,0.0,11.0,86,0.00,,---,0.00,116.00,VWS V14.01,2013-01-13 14:16:00,
2013-01-13 09:21:00,59.3,55.1,30.12,SSW,201,0.0,11.0,86,0.00,,---,0.00,97.00,VWS V14.01,2013-01-13 14:21:00,
2013-01-13 09:25:00,59.4,55.2,30.13,SW,221,1.0,11.0,86,0.00,,---,0.00,91.00,VWS V14.01,2013-01-13 14:25:00,
2013-01-13 09:30:00,59.5,55.3,30.13,South,176,1.0,11.0,86,0.00,,---,0.00,104.00,VWS V14.01,2013-01-13 14:30:00,
2013-01-13 09:31:00,59.5,55.3,30.13,South,180,4.0,11.0,86,0.00,,---,0.00,98.00,VWS V14.01,2013-01-13 14:31:00,
2013-01-13 09:36:00,59.6,55.1,30.13,South,184,4.0,8.0,85,0.00,,---,0.00,113.00,VWS V14.01,2013-01-13 14:36:00,
2013-01-13 09:41:00,59.7,55.2,30.13,SW,229,2.0,8.0,85,0.00,,---,0.00,107.00,VWS V14.01,2013-01-13 14:41:00,
2013-01-13 09:46:00,59.8,55.3,30.13,SW,227,2.0,8.0,85,0.00,,---,0.00,114.00,VWS V14.01,2013-01-13 14:46:00,
2013-01-13 09:51:00,59.9,55.4,30.14,SSE,153,0.0,8.0,85,0.00,,---,0.00,123.00,VWS V14.01,2013-01-13 14:51:00,
2013-01-13 09:56:00,59.9,55.4,30.14,SSE,165,4.0,8.0,85,0.00,,---,0.00,107.00,VWS V14.01,2013-01-13 14:56:00,
2013-01-13 10:00:00,60.0,55.2,30.13,SSW,201,0.0,9.0,84,0.00,,---,0.00,134.00,VWS V14.01,2013-01-13 15:00:00,
2013-01-13 10:01:00,60.0,55.5,30.13,SSW,201,0.0,9.0,85,0.00,,---,0.00,130.00,VWS V14.01,2013-01-13 15:01:00,
2013-01-13 10:06:00,60.1,55.6,30.13,SSE,159,0.0,2.0,85,0.00,,---,0.00,234.00,VWS V14.01,2013-01-13 15:06:00,
2013-01-13 10:11:00,60.3,55.5,30.13,SSW,198,0.0,5.0,84,0.00,,---,0.00,248.00,VWS V14.01,2013-01-13 15:11:00,
2013-01-13 10:16:00,60.7,55.8,30.13,SSE,150,3.0,5.0,84,0.00,,---,0.00,214.00,VWS V14.01,2013-01-13 15:16:00,
2013-01-13 10:21:00,61.0,55.8,30.13,South,169,5.0,5.0,83,0.00,,---,0.00,204.00,VWS V14.01,2013-01-13 15:21:00,
2013-01-13 10:26:00,61.2,55.7,30.13,South,174,6.0,6.0,82,0.00,,---,0.00,151.00,VWS V14.01,2013-01-13 15:26:00,
2013-01-13 10:30:00,61.3,55.8,30.13,South,180,4.0,7.0,82,0.00,,---,0.00,109.00,VWS V14.01,2013-01-13 15:30:00,
2013-01-13 10:31:00,61.3,55.8,30.13,SSW,210,0.0,7.0,82,0.00,,---,0.00,163.00,VWS V14.01,2013-01-13 15:31:00,
2013-01-13 10:36:00,61.3,55.8,30.13,SSE,167,4.0,5.0,82,0.00,,---,0.00,146.00,VWS V14.01,2013-01-13 15:36:00,
2013-01-13 10:41:00,61.4,55.5,30.12,SW,215,1.0,5.0,81,0.00,,---,0.00,190.00,VWS V14.01,2013-01-13 15:41:00,
2013-01-13 10:46:00,61.6,55.7,30.12,SW,228,0.0,7.0,81,0.00,,---,0.00,188.00,VWS V14.01,2013-01-13 15:46:00,
2013-01-13 10:51:00,61.7,56.2,30.12,SSW,202,0.0,7.0,82,0.00,,---,0.00,251.00,VWS V14.01,2013-01-13 15:51:00,
2013-01-13 10:56:00,61.9,55.7,30.12,SSW,202,0.0,7.0,80,0.00,,---,0.00,258.00,VWS V14.01,2013-01-13 15:56:00,
2013-01-13 11:00:00,62.2,55.6,30.12,SW,225,0.0,7.0,79,0.00,,---,0.00,255.00,VWS V14.01,2013-01-13 16:00:00,
2013-01-13 11:01:00,62.2,55.6,30.12,SSW,204,3.0,7.0,79,0.00,,---,0.00,197.00,VWS V14.01,2013-01-13 16:01:00,
2013-01-13 11:06:00,62.7,55.8,30.11,SW,225,0.0,4.0,78,0.00,,---,0.00,499.00,VWS V14.01,2013-01-13 16:06:00,
2013-01-13 11:11:00,63.5,56.2,30.11,SSW,208,1.0,4.0,77,0.00,,---,0.00,482.00,VWS V14.01,2013-01-13 16:11:00,
2013-01-13 11:16:00,64.3,56.2,30.11,WSW,244,5.0,7.0,75,0.00,,---,0.00,311.00,VWS V14.01,2013-01-13 16:16:00,
2013-01-13 11:21:00,64.6,56.1,30.10,WSW,252,1.0,7.0,74,0.00,,---,0.00,183.00,VWS V14.01,2013-01-13 16:21:00,
2013-01-13 11:26:00,64.6,55.8,30.10,SSW,198,0.0,7.0,73,0.00,,---,0.00,262.00,VWS V14.01,2013-01-13 16:26:00,
2013-01-13 11:30:00,64.7,55.5,30.09,SSW,211,3.0,7.0,72,0.00,,---,0.00,438.00,VWS V14.01,2013-01-13 16:30:00,
2013-01-13 11:31:00,64.7,55.5,30.09,SW,217,5.0,7.0,72,0.00,,---,0.00,438.00,VWS V14.01,2013-01-13 16:31:00,
2013-01-13 11:36:00,64.9,56.0,30.09,SSW,205,0.0,3.0,73,0.00,,---,0.00,271.00,VWS V14.01,2013-01-13 16:36:00,
2013-01-13 11:41:00,65.2,56.3,30.09,South,174,2.0,6.0,73,0.00,,---,0.00,239.00,VWS V14.01,2013-01-13 16:41:00,
2013-01-13 11:46:00,65.3,56.4,30.08,South,171,4.0,6.0,73,0.00,,---,0.00,512.00,VWS V14.01,2013-01-13 16:46:00,
2013-01-13 11:51:00,65.5,57.0,30.08,SW,214,0.0,6.0,74,0.00,,---,0.00,390.00,VWS V14.01,2013-01-13 16:51:00,
2013-01-13 11:56:00,65.8,58.0,30.08,SSW,205,4.0,6.0,76,0.00,,---,0.00,390.00,VWS V14.01,2013-01-13 16:56:00,
2013-01-13 12:00:00,65.8,57.7,30.08,South,189,0.0,6.0,75,0.00,,---,0.00,411.00,VWS V14.01,2013-01-13 17:00:00,
2013-01-13 12:01:00,65.8,57.7,30.08,SSW,194,2.0,6.0,75,0.00,,---,0.00,411.00,VWS V14.01,2013-01-13 17:01:00,
2013-01-13 12:06:00,65.8,58.0,30.08,SSW,202,0.0,6.0,76,0.00,,---,0.00,582.00,VWS V14.01,2013-01-13 17:06:00,
2013-01-13 12:11:00,66.2,58.0,30.07,South,184,2.0,7.0,75,0.00,,---,0.00,183.00,VWS V14.01,2013-01-13 17:11:00,
2013-01-13 12:16:00,66.0,57.9,30.07,SE,126,2.0,7.0,75,0.00,,---,0.00,294.00,VWS V14.01,2013-01-13 17:16:00,
2013-01-13 12:21:00,65.8,57.7,30.07,East,99,1.0,7.0,75,0.00,,---,0.00,659.00,VWS V14.01,2013-01-13 17:21:00,
2013-01-13 12:26:00,65.6,57.8,30.06,SE,128,0.0,9.0,76,0.00,,---,0.00,301.00,VWS V14.01,2013-01-13 17:26:00,
2013-01-13 12:30:00,65.4,57.7,30.06,ESE,116,0.0,9.0,76,0.00,,---,0.00,536.00,VWS V14.01,2013-01-13 17:30:00,
2013-01-13 12:32:00,65.4,57.7,30.06,ESE,116,1.0,9.0,76,0.00,,---,0.00,536.00,VWS V14.01,2013-01-13 17:32:00,
2013-01-13 12:36:00,65.4,57.7,30.06,SE,138,0.0,5.0,76,0.00,,---,0.00,230.00,VWS V14.01,2013-01-13 17:36:00,
2013-01-13 12:42:00,65.4,57.7,30.05,South,171,0.0,5.0,76,0.00,,---,0.00,278.00,VWS V14.01,2013-01-13 17:42:00,
2013-01-13 12:47:00,65.4,58.0,30.05,South,174,4.0,5.0,77,0.00,,---,0.00,346.00,VWS V14.01,2013-01-13 17:47:00,
2013-01-13 12:52:00,65.4,58.0,30.05,South,177,0.0,5.0,77,0.00,,---,0.00,225.00,VWS V14.01,2013-01-13 17:52:00,
2013-01-13 12:57:00,65.4,57.7,30.05,South,170,0.0,5.0,76,0.00,,---,0.00,221.00,VWS V14.01,2013-01-13 17:57:00,
2013-01-13 13:00:00,65.0,57.6,30.05,SSW,197,13.0,13.0,77,0.00,,---,0.00,334.00,VWS V14.01,2013-01-13 18:00:00,
2013-01-13 13:02:00,65.0,57.6,30.05,SSW,203,4.0,7.0,77,0.00,,---,0.00,311.00,VWS V14.01,2013-01-13 18:02:00,
2013-01-13 13:07:00,64.7,57.7,30.05,SE,139,0.0,13.0,78,0.00,,---,0.00,195.00,VWS V14.01,2013-01-13 18:07:00,
2013-01-13 13:12:00,64.4,57.4,30.05,ESE,114,0.0,13.0,78,0.00,,---,0.00,237.00,VWS V14.01,2013-01-13 18:12:00,
2013-01-13 13:17:00,64.1,57.5,30.05,SSW,213,3.0,13.0,79,0.00,,---,0.00,223.00,VWS V14.01,2013-01-13 18:17:00,
2013-01-13 13:22:00,63.8,57.2,30.05,ESE,118,3.0,13.0,79,0.00,,---,0.00,279.00,VWS V14.01,2013-01-13 18:22:00,
2013-01-13 13:27:00,63.4,57.1,30.04,SSW,194,2.0,13.0,80,0.00,,---,0.00,183.00,VWS V14.01,2013-01-13 18:27:00,
2013-01-13 13:30:00,63.1,57.2,30.05,SW,232,0.0,13.0,81,0.00,,---,0.00,584.00,VWS V14.01,2013-01-13 18:30:00,
2013-01-13 13:32:00,63.1,57.2,30.05,SW,232,0.0,13.0,81,0.00,,---,0.00,584.00,VWS V14.01,2013-01-13 18:32:00,
2013-01-13 13:37:00,63.3,57.4,30.05,South,186,5.0,7.0,81,0.00,,---,0.00,227.00,VWS V14.01,2013-01-13 18:37:00,
2013-01-13 13:42:00,63.3,57.4,30.05,SSW,192,4.0,8.0,81,0.00,,---,0.00,262.00,VWS V14.01,2013-01-13 18:42:00,
2013-01-13 13:47:00,63.1,57.2,30.06,SSE,168,0.0,9.0,81,0.00,,---,0.00,269.00,VWS V14.01,2013-01-13 18:47:00,
2013-01-13 13:52:00,62.9,57.3,30.06,South,176,8.0,9.0,82,0.00,,---,0.00,207.00,VWS V14.01,2013-01-13 18:52:00,
2013-01-13 13:57:00,62.8,57.2,30.05,South,171,0.0,9.0,82,0.00,,---,0.00,241.00,VWS V14.01,2013-01-13 18:57:00,
2013-01-13 14:00:00,62.6,57.0,30.05,SE,134,0.0,9.0,82,0.00,,---,0.00,227.00,VWS V14.01,2013-01-13 19:00:00,
2013-01-13 14:02:00,62.6,57.0,30.05,SE,134,0.0,9.0,82,0.00,,---,0.00,227.00,VWS V14.01,2013-01-13 19:02:00,
2013-01-13 14:07:00,62.5,57.3,30.05,SSW,209,6.0,9.0,83,0.00,,---,0.00,188.00,VWS V14.01,2013-01-13 19:07:00,
2013-01-13 14:12:00,62.4,57.2,30.06,SE,134,0.0,9.0,83,0.00,,---,0.00,246.00,VWS V14.01,2013-01-13 19:12:00,
2013-01-13 14:17:00,62.5,57.6,30.06,South,184,1.0,9.0,84,0.00,,---,0.00,225.00,VWS V14.01,2013-01-13 19:17:00,
2013-01-13 14:22:00,62.6,57.7,30.05,SW,217,0.0,9.0,84,0.00,,---,0.00,267.00,VWS V14.01,2013-01-13 19:22:00,
2013-01-13 14:27:00,63.1,57.9,30.06,NE,49,1.0,9.0,83,0.00,,---,0.00,174.00,VWS V14.01,2013-01-13 19:27:00,
2013-01-13 14:30:00,63.3,57.7,30.05,SE,144,1.0,9.0,82,0.00,,---,0.00,227.00,VWS V14.01,2013-01-13 19:30:00,
2013-01-13 14:32:00,63.3,57.7,30.05,East,79,0.0,9.0,82,0.00,,---,0.00,227.00,VWS V14.01,2013-01-13 19:32:00,
2013-01-13 14:37:00,63.3,57.7,30.05,SW,221,0.0,6.0,82,0.00,,---,0.00,352.00,VWS V14.01,2013-01-13 19:37:00,
2013-01-13 14:42:00,63.4,57.5,30.06,SE,138,5.0,7.0,81,0.00,,---,0.00,160.00,VWS V14.01,2013-01-13 19:42:00,
2013-01-13 14:47:00,63.4,57.5,30.05,SSE,149,0.0,7.0,81,0.00,,---,0.00,432.00,VWS V14.01,2013-01-13 19:47:00,
2013-01-13 14:52:00,63.5,57.6,30.05,WNW,294,0.0,7.0,81,0.00,,---,0.00,162.00,VWS V14.01,2013-01-13 19:52:00,
2013-01-13 14:57:00,63.6,57.7,30.05,SSE,153,3.0,9.0,81,0.00,,---,0.00,125.00,VWS V14.01,2013-01-13 19:57:00,
2013-01-13 15:00:00,63.6,57.7,30.05,South,182,0.0,9.0,81,0.00,,---,0.00,188.00,VWS V14.01,2013-01-13 20:00:00,
2013-01-13 15:02:00,63.6,57.7,30.05,South,182,0.0,9.0,81,0.00,,---,0.00,188.00,VWS V14.01,2013-01-13 20:02:00,
2013-01-13 15:07:00,63.5,57.6,30.06,SSW,205,0.0,6.0,81,0.00,,---,0.00,213.00,VWS V14.01,2013-01-13 20:07:00,
2013-01-13 15:12:00,63.5,57.6,30.06,SE,138,1.0,6.0,81,0.00,,---,0.00,155.00,VWS V14.01,2013-01-13 20:12:00,
2013-01-13 15:17:00,63.5,57.6,30.06,SSE,165,3.0,12.0,81,0.00,,---,0.00,105.00,VWS V14.01,2013-01-13 20:17:00,
2013-01-13 15:22:00,63.4,57.5,30.06,South,173,1.0,12.0,81,0.00,,---,0.00,156.00,VWS V14.01,2013-01-13 20:22:00,
2013-01-13 15:27:00,63.4,57.5,30.06,SE,136,0.0,12.0,81,0.00,,---,0.00,160.00,VWS V14.01,2013-01-13 20:27:00,
2013-01-13 15:30:00,63.4,57.8,30.06,South,169,1.0,12.0,82,0.00,,---,0.00,174.00,VWS V14.01,2013-01-13 20:30:00,
2013-01-13 15:32:00,63.4,57.8,30.06,ESE,102,3.0,3.0,82,0.00,,---,0.00,174.00,VWS V14.01,2013-01-13 20:32:00,
2013-01-13 15:37:00,63.4,57.5,30.06,SSE,159,1.0,6.0,81,0.00,,---,0.00,271.00,VWS V14.01,2013-01-13 20:37:00,
2013-01-13 15:42:00,63.4,57.5,30.06,South,177,2.0,6.0,81,0.00,,---,0.00,95.00,VWS V14.01,2013-01-13 20:42:00,
2013-01-13 15:47:00,63.4,57.5,30.07,SSE,163,4.0,8.0,81,0.00,,---,0.00,72.00,VWS V14.01,2013-01-13 20:47:00,
2013-01-13 15:52:00,63.3,57.4,30.06,SE,126,0.0,8.0,81,0.00,,---,0.00,84.00,VWS V14.01,2013-01-13 20:52:00,
2013-01-13 15:57:00,63.2,57.3,30.06,South,175,0.0,8.0,81,0.00,,---,0.00,104.00,VWS V14.01,2013-01-13 20:57:00,
2013-01-13 16:00:00,63.1,57.2,30.07,South,184,0.0,8.0,81,0.00,,---,0.00,109.00,VWS V14.01,2013-01-13 21:00:00,
2013-01-13 16:02:00,63.1,57.2,30.07,South,175,4.0,4.0,81,0.00,,---,0.00,109.00,VWS V14.01,2013-01-13 21:02:00,
2013-01-13 16:07:00,63.1,57.5,30.07,South,190,3.0,5.0,82,0.00,,---,0.00,90.00,VWS V14.01,2013-01-13 21:07:00,
2013-01-13 16:12:00,63.0,57.4,30.07,South,182,0.0,5.0,82,0.00,,---,0.00,91.00,VWS V14.01,2013-01-13 21:12:00,
2013-01-13 16:17:00,63.0,57.4,30.07,South,179,2.0,6.0,82,0.00,,---,0.00,76.00,VWS V14.01,2013-01-13 21:17:00,
2013-01-13 16:22:00,62.9,57.3,30.07,SSE,163,0.0,13.0,82,0.00,,---,0.00,58.00,VWS V14.01,2013-01-13 21:22:00,
2013-01-13 16:27:00,62.8,57.2,30.07,South,178,0.0,13.0,82,0.00,,---,0.00,60.00,VWS V14.01,2013-01-13 21:27:00,
2013-01-13 16:30:00,62.8,57.2,30.07,East,91,0.0,13.0,82,0.00,,---,0.00,63.00,VWS V14.01,2013-01-13 21:30:00,
2013-01-13 16:32:00,62.8,57.2,30.07,South,172,1.0,3.0,82,0.00,,---,0.00,62.00,VWS V14.01,2013-01-13 21:32:00,
2013-01-13 16:37:00,62.7,57.5,30.07,South,182,0.0,6.0,83,0.00,,---,0.00,42.00,VWS V14.01,2013-01-13 21:37:00,
2013-01-13 16:42:00,62.7,57.5,30.08,SSE,159,1.0,6.0,83,0.00,,---,0.00,35.00,VWS V14.01,2013-01-13 21:42:00,
2013-01-13 16:47:00,62.6,57.4,30.07,SSE,159,0.0,7.0,83,0.00,,---,0.00,35.00,VWS V14.01,2013-01-13 21:47:00,
2013-01-13 16:52:00,62.5,57.3,30.07,West,261,0.0,7.0,83,0.00,,---,0.00,33.00,VWS V14.01,2013-01-13 21:52:00,
2013-01-13 16:57:00,62.5,57.3,30.07,NE,54,0.0,7.0,83,0.00,,---,0.00,30.00,VWS V14.01,2013-01-13 21:57:00,
2013-01-13 17:00:00,62.4,57.2,30.07,ENE,69,0.0,7.0,83,0.00,,---,0.00,14.00,VWS V14.01,2013-01-13 22:00:00,
2013-01-13 17:02:00,62.4,57.2,30.07,South,179,0.0,1.0,83,0.00,,---,0.00,14.00,VWS V14.01,2013-01-13 22:02:00,
2013-01-13 17:07:00,62.3,57.4,30.07,ESE,105,5.0,7.0,84,0.00,,---,0.00,9.00,VWS V14.01,2013-01-13 22:07:00,
2013-01-13 17:12:00,62.2,57.3,30.07,SSE,161,0.0,7.0,84,0.00,,---,0.00,9.00,VWS V14.01,2013-01-13 22:12:00,
2013-01-13 17:17:00,62.1,57.2,30.07,South,171,0.0,7.0,84,0.00,,---,0.00,7.00,VWS V14.01,2013-01-13 22:17:00,
2013-01-13 17:22:00,62.0,57.1,30.07,ESE,103,4.0,7.0,84,0.00,,---,0.00,5.00,VWS V14.01,2013-01-13 22:22:00,
2013-01-13 17:27:00,61.9,57.0,30.07,South,188,0.0,7.0,84,0.00,,---,0.00,0.00,VWS V14.01,2013-01-13 22:27:00,
2013-01-13 17:30:00,61.8,56.9,30.07,SSE,167,4.0,7.0,84,0.00,,---,0.00,0.00,VWS V14.01,2013-01-13 22:30:00,
2013-01-13 17:32:00,61.8,57.2,30.07,SE,139,2.0,4.0,85,0.00,,---,0.00,0.00,VWS V14.01,2013-01-13 22:32:00,
2013-01-13 17:37:00,61.7,57.2,30.07,South,184,5.0,7.0,85,0.00,,---,0.00,0.00,VWS V14.01,2013-01-13 22:37:00,
2013-01-13 17:42:00,61.6,57.0,30.07,SSE,162,0.0,7.0,85,0.00,,---,0.00,0.00,VWS V14.01,2013-01-13 22:42:00,
2013-01-13 17:47:00,61.6,57.0,30.07,SE,142,2.0,7.0,85,0.00,,---,0.00,0.00,VWS V14.01,2013-01-13 22:47:00,
2013-01-13 17:52:00,61.4,56.9,30.06,SSE,157,2.0,7.0,85,0.00,,---,0.00,0.00,VWS V14.01,2013-01-13 22:52:00,
2013-01-13 17:57:00,61.3,56.8,30.06,SSE,168,2.0,7.0,85,0.00,,---,0.00,0.00,VWS V14.01,2013-01-13 22:57:00,
2013-01-13 18:00:00,61.2,56.7,30.07,ESE,105,0.0,7.0,85,0.00,,---,0.00,0.00,VWS V14.01,2013-01-13 23:00:00,
2013-01-13 18:02:00,61.3,56.8,30.07,ESE,105,0.0,0.0,85,0.00,,---,0.00,0.00,VWS V14.01,2013-01-13 23:02:00,
2013-01-13 18:07:00,61.2,57.0,30.07,South,178,2.0,6.0,86,0.00,,---,0.00,0.00,VWS V14.01,2013-01-13 23:07:00,
2013-01-13 18:12:00,61.1,56.9,30.07,SSE,162,0.0,11.0,86,0.00,,---,0.00,0.00,VWS V14.01,2013-01-13 23:12:00,
2013-01-13 18:17:00,61.0,56.8,30.07,SSE,158,1.0,11.0,86,0.00,,---,0.00,0.00,VWS V14.01,2013-01-13 23:17:00,
2013-01-13 18:22:00,61.0,56.8,30.07,SSW,200,0.0,11.0,86,0.00,,---,0.00,0.00,VWS V14.01,2013-01-13 23:22:00,
2013-01-13 18:27:00,60.9,56.7,30.07,South,169,5.0,11.0,86,0.00,,---,0.00,0.00,VWS V14.01,2013-01-13 23:27:00,
2013-01-13 18:30:00,60.8,56.6,30.06,East,79,4.0,11.0,86,0.00,,---,0.00,0.00,VWS V14.01,2013-01-13 23:30:00,
2013-01-13 18:32:00,60.8,56.6,30.07,South,169,1.0,4.0,86,0.00,,---,0.00,0.00,VWS V14.01,2013-01-13 23:32:00,
2013-01-13 18:37:00,60.7,56.5,30.07,SSE,149,6.0,8.0,86,0.00,,---,0.00,0.00,VWS V14.01,2013-01-13 23:37:00,
2013-01-13 18:42:00,60.7,56.5,30.07,SSE,153,0.0,8.0,86,0.00,,---,0.00,0.00,VWS V14.01,2013-01-13 23:42:00,
2013-01-13 18:47:00,60.6,56.4,30.07,SSW,195,3.0,8.0,86,0.00,,---,0.00,0.00,VWS V14.01,2013-01-13 23:47:00,
2013-01-13 18:52:00,60.5,56.3,30.07,South,180,3.0,8.0,86,0.00,,---,0.00,0.00,VWS V14.01,2013-01-13 23:52:00,
2013-01-13 18:57:00,60.5,56.6,30.07,SSE,164,5.0,10.0,87,0.00,,---,0.00,0.00,VWS V14.01,2013-01-13 23:57:00,
2013-01-13 19:00:00,60.4,56.5,30.07,SE,134,1.0,10.0,87,0.00,,---,0.00,0.00,VWS V14.01,2013-01-14 00:00:00,
2013-01-13 19:02:00,60.4,56.5,30.07,SSE,163,3.0,5.0,87,0.00,,---,0.00,0.00,VWS V14.01,2013-01-14 00:02:00,
2013-01-13 19:07:00,60.4,56.5,30.07,South,177,5.0,7.0,87,0.00,,---,0.00,0.00,VWS V14.01,2013-01-14 00:07:00,
2013-01-13 19:12:00,60.3,56.4,30.07,SSE,162,2.0,10.0,87,0.00,,---,0.00,0.00,VWS V14.01,2013-01-14 00:12:00,
2013-01-13 19:17:00,60.3,56.7,30.07,SSE,162,0.0,16.0,88,0.00,,---,0.00,0.00,VWS V14.01,2013-01-14 00:17:00,
2013-01-13 19:22:00,60.3,56.4,30.07,South,175,6.0,16.0,87,0.00,,---,0.00,0.00,VWS V14.01,2013-01-14 00:22:00,
2013-01-13 19:27:00,60.2,56.3,30.07,South,178,3.0,16.0,87,0.00,,---,0.00,0.00,VWS V14.01,2013-01-14 00:27:00,
2013-01-13 19:30:00,60.2,56.3,30.07,SW,230,3.0,16.0,87,0.00,,---,0.00,0.00,VWS V14.01,2013-01-14 00:30:00,
2013-01-13 19:32:00,60.2,56.3,30.07,South,190,0.0,3.0,87,0.00,,---,0.00,0.00,VWS V14.01,2013-01-14 00:32:00,
2013-01-13 19:37:00,60.2,56.3,30.07,SSW,201,0.0,5.0,87,0.00,,---,0.00,0.00,VWS V14.01,2013-01-14 00:37:00,
2013-01-13 19:42:00,60.2,56.3,30.06,SE,140,0.0,14.0,87,0.00,,---,0.00,0.00,VWS V14.01,2013-01-14 00:42:00,
2013-01-13 19:47:00,60.2,56.0,30.07,South,174,2.0,14.0,86,0.00,,---,0.00,0.00,VWS V14.01,2013-01-14 00:47:00,
2013-01-13 19:52:00,60.1,55.9,30.06,South,178,3.0,14.0,86,0.00,,---,0.00,0.00,VWS V14.01,2013-01-14 00:52:00,
2013-01-13 19:57:00,60.1,55.9,30.07,South,184,6.0,14.0,86,0.00,,---,0.00,0.00,VWS V14.01,2013-01-14 00:57:00,
2013-01-13 20:00:00,60.0,55.8,30.07,South,169,6.0,14.0,86,0.00,,---,0.00,0.00,VWS V14.01,2013-01-14 01:00:00,
2013-01-13 20:02:00,60.1,55.9,30.07,SSW,201,2.0,10.0,86,0.00,,---,0.00,0.00,VWS V14.01,2013-01-14 01:02:00,
2013-01-13 20:07:00,60.0,55.5,30.07,SSW,192,2.0,10.0,85,0.00,,---,0.00,0.00,VWS V14.01,2013-01-14 01:07:00,
2013-01-13 20:12:00,60.0,55.5,30.06,South,184,2.0,11.0,85,0.00,,---,0.00,0.00,VWS V14.01,2013-01-14 01:12:00,
2013-01-13 20:17:00,59.9,55.4,30.06,South,177,4.0,11.0,85,0.00,,---,0.00,0.00,VWS V14.01,2013-01-14 01:17:00,
2013-01-13 20:22:00,59.8,55.3,30.06,South,173,10.0,11.0,85,0.00,,---,0.00,0.00,VWS V14.01,2013-01-14 01:22:00,
2013-01-13 20:27:00,59.7,55.5,30.06,South,186,3.0,12.0,86,0.00,,---,0.00,0.00,VWS V14.01,2013-01-14 01:27:00,
2013-01-13 20:30:00,59.6,55.4,30.07,SSE,168,5.0,12.0,86,0.00,,---,0.00,0.00,VWS V14.01,2013-01-14 01:30:00,
2013-01-13 20:32:00,59.6,55.4,30.07,SSW,198,7.0,8.0,86,0.00,,---,0.00,0.00,VWS V14.01,2013-01-14 01:32:00,
2013-01-13 20:37:00,59.5,55.3,30.06,South,172,2.0,8.0,86,0.00,,---,0.00,0.00,VWS V14.01,2013-01-14 01:37:00,
2013-01-13 20:42:00,59.4,55.2,30.07,SSE,164,4.0,11.0,86,0.00,,---,0.00,0.00,VWS V14.01,2013-01-14 01:42:00,
2013-01-13 20:47:00,59.3,55.1,30.07,South,170,5.0,11.0,86,0.00,,---,0.00,0.00,VWS V14.01,2013-01-14 01:47:00,
2013-01-13 20:52:00,59.3,55.1,30.06,South,188,7.0,13.0,86,0.00,,---,0.00,0.00,VWS V14.01,2013-01-14 01:52:00,
2013-01-13 20:57:00,59.2,55.0,30.06,South,174,0.0,13.0,86,0.00,,---,0.00,0.00,VWS V14.01,2013-01-14 01:57:00,
2013-01-13 21:00:00,59.1,54.9,30.06,SSE,167,5.0,13.0,86,0.00,,---,0.00,0.00,VWS V14.01,2013-01-14 02:00:00,
2013-01-13 21:02:00,59.1,54.9,30.07,South,175,10.0,10.0,86,0.00,,---,0.00,0.00,VWS V14.01,2013-01-14 02:02:00,
2013-01-13 21:07:00,59.1,54.6,30.07,South,178,3.0,11.0,85,0.00,,---,0.00,0.00,VWS V14.01,2013-01-14 02:07:00,
2013-01-13 21:12:00,59.0,54.5,30.06,South,187,2.0,11.0,85,0.00,,---,0.00,0.00,VWS V14.01,2013-01-14 02:12:00,
2013-01-13 21:17:00,59.0,54.5,30.06,South,178,1.0,11.0,85,0.00,,---,0.00,0.00,VWS V14.01,2013-01-14 02:17:00,
2013-01-13 21:22:00,59.0,54.8,30.06,South,185,0.0,11.0,86,0.00,,---,0.00,0.00,VWS V14.01,2013-01-14 02:22:00,
2013-01-13 21:27:00,58.9,54.7,30.06,South,169,2.0,11.0,86,0.00,,---,0.00,0.00,VWS V14.01,2013-01-14 02:27:00,
2013-01-13 21:30:00,58.9,54.7,30.06,SSE,163,4.0,11.0,86,0.00,,---,0.00,0.00,VWS V14.01,2013-01-14 02:30:00,
2013-01-13 21:32:00,58.9,54.7,30.06,SSE,154,1.0,6.0,86,0.00,,---,0.00,0.00,VWS V14.01,2013-01-14 02:32:00,
2013-01-13 21:37:00,58.9,55.0,30.06,SSE,167,1.0,12.0,87,0.00,,---,0.00,0.00,VWS V14.01,2013-01-14 02:37:00,
2013-01-13 21:42:00,58.9,55.0,30.06,South,175,4.0,12.0,87,0.00,,---,0.00,0.00,VWS V14.01,2013-01-14 02:42:00,
2013-01-13 21:47:00,58.9,55.0,30.06,South,169,10.0,13.0,87,0.00,,---,0.00,0.00,VWS V14.01,2013-01-14 02:47:00,
2013-01-13 21:52:00,59.0,55.1,30.05,South,174,11.0,13.0,87,0.00,,---,0.00,0.00,VWS V14.01,2013-01-14 02:52:00,
2013-01-13 21:57:00,59.1,55.2,30.06,South,181,10.0,15.0,87,0.00,,---,0.00,0.00,VWS V14.01,2013-01-14 02:57:00,
2013-01-13 22:00:00,59.1,55.2,30.06,South,173,4.0,15.0,87,0.00,,---,0.00,0.00,VWS V14.01,2013-01-14 03:00:00,
2013-01-13 22:02:00,59.1,55.2,30.06,SW,217,4.0,6.0,87,0.00,,---,0.00,0.00,VWS V14.01,2013-01-14 03:02:00,
2013-01-13 22:07:00,59.2,55.3,30.06,SSE,149,3.0,8.0,87,0.00,,---,0.00,0.00,VWS V14.01,2013-01-14 03:07:00,
2013-01-13 22:12:00,59.2,55.3,30.06,South,187,0.0,14.0,87,0.00,,---,0.00,0.00,VWS V14.01,2013-01-14 03:12:00,
2013-01-13 22:17:00,59.3,55.4,30.06,South,178,4.0,15.0,87,0.00,,---,0.00,0.00,VWS V14.01,2013-01-14 03:17:00,
2013-01-13 22:22:00,59.3,55.4,30.07,South,173,9.0,15.0,87,0.00,,---,0.00,0.00,VWS V14.01,2013-01-14 03:22:00,
2013-01-13 22:27:00,59.4,55.5,30.07,SSE,147,5.0,16.0,87,0.00,,---,0.00,0.00,VWS V14.01,2013-01-14 03:27:00,
2013-01-13 22:30:00,59.5,55.6,30.07,SSE,167,1.0,16.0,87,0.00,,---,0.00,0.00,VWS V14.01,2013-01-14 03:30:00,
2013-01-13 22:32:00,59.5,55.6,30.07,SSE,165,5.0,5.0,87,0.00,,---,0.00,0.00,VWS V14.01,2013-01-14 03:32:00,
2013-01-13 22:37:00,59.5,55.6,30.08,SE,143,0.0,7.0,87,0.00,,---,0.00,0.00,VWS V14.01,2013-01-14 03:37:00,
2013-01-13 22:42:00,59.6,56.0,30.08,SSW,196,2.0,12.0,88,0.00,,---,0.00,0.00,VWS V14.01,2013-01-14 03:42:00,
2013-01-13 22:47:00,59.7,55.8,30.08,South,176,3.0,12.0,87,0.00,,---,0.00,0.00,VWS V14.01,2013-01-14 03:47:00,
2013-01-13 22:52:00,59.7,55.8,30.08,SE,140,0.0,12.0,87,0.00,,---,0.00,0.00,VWS V14.01,2013-01-14 03:52:00,
2013-01-13 22:57:00,59.8,55.9,30.08,SSW,213,0.0,12.0,87,0.00,,---,0.00,0.00,VWS V14.01,2013-01-14 03:57:00,
2013-01-13 23:00:00,59.8,55.9,30.08,SSW,198,0.0,12.0,87,0.00,,---,0.00,0.00,VWS V14.01,2013-01-14 04:00:00,
2013-01-13 23:02:00,59.8,55.9,30.08,South,182,4.0,4.0,87,0.00,,---,0.00,0.00,VWS V14.01,2013-01-14 04:02:00,
2013-01-13 23:07:00,59.9,56.0,30.09,SSE,163,3.0,9.0,87,0.00,,---,0.00,0.00,VWS V14.01,2013-01-14 04:07:00,
2013-01-13 23:12:00,59.9,56.0,30.09,SSW,197,2.0,9.0,87,0.00,,---,0.00,0.00,VWS V14.01,2013-01-14 04:12:00,
2013-01-13 23:17:00,60.0,56.1,30.09,SSW,200,0.0,9.0,87,0.00,,---,0.00,0.00,VWS V14.01,2013-01-14 04:17:00,
2013-01-13 23:22:00,60.0,56.1,30.09,SSE,164,0.0,9.0,87,0.00,,---,0.00,0.00,VWS V14.01,2013-01-14 04:22:00,
2013-01-13 23:27:00,60.1,56.2,30.09,SW,218,0.0,11.0,87,0.00,,---,0.00,0.00,VWS V14.01,2013-01-14 04:27:00,
2013-01-13 23:30:00,60.2,56.3,30.09,South,172,3.0,11.0,87,0.00,,---,0.00,0.00,VWS V14.01,2013-01-14 04:30:00,
2013-01-13 23:32:00,60.2,56.3,30.09,SSW,192,0.0,6.0,87,0.00,,---,0.00,0.00,VWS V14.01,2013-01-14 04:32:00,
2013-01-13 23:37:00,60.2,56.0,30.09,SSE,167,3.0,10.0,86,0.00,,---,0.00,0.00,VWS V14.01,2013-01-14 04:37:00,
2013-01-13 23:42:00,60.3,56.1,30.10,South,187,5.0,10.0,86,0.00,,---,0.00,0.00,VWS V14.01,2013-01-14 04:42:00,
2013-01-13 23:47:00,60.3,56.1,30.10,South,171,11.0,13.0,86,0.00,,---,0.00,0.00,VWS V14.01,2013-01-14 04:47:00,
2013-01-13 23:52:00,60.4,56.2,30.09,SSE,163,0.0,13.0,86,0.00,,---,0.00,0.00,VWS V14.01,2013-01-14 04:52:00,
2013-01-13 23:57:00,60.4,56.2,30.09,SSW,200,3.0,13.0,86,0.00,,---,0.00,0.00,VWS V14.01,2013-01-14 04:57:00,